Date String (YYYY-MM-DD hh:mm:ss) UTC,Instrument flags,Ambient pressure (hPa),Sample flow (lpm),Bypass flow (lpm),Sample temperature (°C),Ambient temperature (°C),ASC tube jacket temperature (°C),LED temperature (°C),Box temperature (°C),Sample RH (%),Span deviation,Mass concentration (μg/m³),Mass concentration (μg/m³),Mass concentration (μg/m³)
DateTimeUTC,F1_M11,P_M11,Q1_M11,Q2_M11,T1_M11,T2_M11,T3_M11,T4_M11,T5_M11,U1_M11,ZSPAN_M11,X0_M11,X2_M11,X1_M11
2022-05-20 23:00:00,,0824.1,5.00,0.00,22.8,21.8,00.0,31.9,24.7,20.4,0000.0,0001.26,0001.11,0001.10
2022-05-20 23:01:00,,0824.1,5.00,0.00,22.8,21.7,00.0,31.9,24.7,20.4,0000.0,0001.28,0001.13,0001.11
2022-05-20 23:02:00,,0824.1,5.00,0.00,22.8,21.7,00.0,31.9,24.6,20.4,0000.0,0001.32,0001.15,0001.13
2022-05-20 23:03:00,,0824.0,5.00,0.00,22.8,21.7,00.0,31.9,24.6,20.4,0000.0,0001.35,0001.18,0001.16
2022-05-20 23:04:00,,0823.9,5.00,0.00,22.8,21.7,00.0,31.9,24.6,20.4,0000.0,0001.37,0001.20,0001.18
2022-05-20 23:05:00,,0823.8,5.00,0.00,22.8,21.7,00.0,31.9,24.6,20.4,0000.0,0001.44,0001.24,0001.21
2022-05-20 23:06:00,,0823.7,5.00,0.00,22.8,21.7,00.0,31.9,24.6,20.4,0000.0,0001.51,0001.28,0001.23
2022-05-20 23:07:00,,0823.7,4.99,0.00,22.8,21.7,00.0,31.8,24.6,20.4,0000.0,0001.54,0001.31,0001.25
2022-05-20 23:08:00,,0823.8,4.99,0.00,22.8,21.7,00.0,31.8,24.6,20.5,0000.0,0001.57,0001.33,0001.27
2022-05-20 23:09:00,,0823.9,5.00,0.00,22.8,21.7,00.0,31.8,24.6,20.5,0000.0,0001.59,0001.35,0001.28
2022-05-20 23:10:00,,0824.1,5.00,0.00,22.8,21.7,00.0,31.8,24.6,20.5,0000.0,0001.62,0001.38,0001.31
2022-05-20 23:11:00,,0824.1,5.01,0.00,22.8,21.7,00.0,31.8,24.6,20.5,0000.0,0001.65,0001.41,0001.34
2022-05-20 23:12:00,,0824.2,4.99,0.00,22.8,21.7,00.0,31.8,24.5,20.5,0000.0,0001.67,0001.43,0001.37
2022-05-20 23:13:00,,0824.2,5.00,0.00,22.7,21.6,00.0,31.8,24.5,20.5,0000.0,0001.71,0001.47,0001.41
2022-05-20 23:14:00,,0824.2,5.00,0.00,22.7,21.6,00.0,31.8,24.5,20.5,0000.0,0001.74,0001.50,0001.44
2022-05-20 23:15:00,,0824.2,5.00,0.00,22.7,21.6,00.0,31.8,24.5,20.5,0000.0,0001.78,0001.54,0001.47
2022-05-20 23:16:00,,0824.2,5.01,0.00,22.7,21.5,00.0,31.8,24.4,20.6,0000.0,0001.85,0001.59,0001.51
2022-05-20 23:17:00,,0824.2,4.99,0.00,22.7,21.5,00.0,31.7,24.4,20.6,0000.0,0001.89,0001.64,0001.55
2022-05-20 23:18:00,,0824.3,5.00,0.00,22.6,21.5,00.0,31.7,24.4,20.6,0000.0,0001.97,0001.69,0001.59
2022-05-20 23:19:00,,0824.2,4.99,0.00,22.6,21.5,00.0,31.7,24.4,20.6,0000.0,0002.05,0001.76,0001.66
2022-05-20 23:20:00,,0824.1,5.00,0.00,22.6,21.5,00.0,31.7,24.4,20.6,0000.0,0002.21,0001.86,0001.73
2022-05-20 23:21:00,,0824.1,5.00,0.00,22.6,21.5,00.0,31.7,24.4,20.6,0000.0,0002.44,0001.93,0001.78
2022-05-20 23:22:00,,0824.1,5.00,0.00,22.6,21.5,00.0,31.7,24.4,20.6,0000.0,0002.51,0001.99,0001.83
2022-05-20 23:23:00,,0824.1,4.99,0.00,22.6,21.5,00.0,31.7,24.4,20.6,0000.0,0002.56,0002.03,0001.86
2022-05-20 23:24:00,,0824.2,5.01,0.00,22.6,21.5,00.0,31.7,24.4,20.6,0000.0,0002.60,0002.07,0001.91
2022-05-20 23:25:00,,0824.2,4.99,0.00,22.6,21.5,00.0,31.7,24.4,20.6,0000.0,0002.64,0002.11,0001.94
2022-05-20 23:26:00,,0824.2,5.00,0.00,22.6,21.5,00.0,31.6,24.4,20.6,0000.0,0002.70,0002.16,0002.00
2022-05-20 23:27:00,,0824.3,5.00,0.00,22.6,21.5,00.0,31.6,24.4,20.7,0000.0,0002.72,0002.21,0002.05
2022-05-20 23:28:00,,0824.3,5.00,0.00,22.6,21.5,00.0,31.6,24.4,20.7,0000.0,0002.71,0002.22,0002.09
2022-05-20 23:29:00,,0824.3,5.00,0.00,22.6,21.5,00.0,31.6,24.4,20.7,0000.0,0002.70,0002.24,0002.11
2022-05-20 23:30:00,,0824.2,5.01,0.00,22.6,21.5,00.0,31.6,24.4,20.7,0000.0,0002.76,0002.28,0002.15
2022-05-20 23:31:00,,0824.2,5.00,0.00,22.6,21.4,00.0,31.6,24.4,20.7,0000.0,0002.70,0002.27,0002.16
2022-05-20 23:32:00,,0824.3,5.00,0.00,22.6,21.4,00.0,31.6,24.4,20.7,0000.0,0002.59,0002.29,0002.19
2022-05-20 23:33:00,,0824.4,5.00,0.00,22.6,21.4,00.0,31.6,24.4,20.7,0000.0,0002.61,0002.33,0002.24
2022-05-20 23:34:00,,0824.5,5.00,0.00,22.6,21.4,00.0,31.6,24.4,20.7,0000.0,0002.66,0002.38,0002.29
2022-05-20 23:35:00,,0824.5,5.00,0.00,22.5,21.4,00.0,31.6,24.4,20.7,0000.0,0002.79,0002.45,0002.33
2022-05-20 23:36:00,,0824.4,5.01,0.00,22.5,21.4,00.0,31.6,24.3,20.7,0000.0,0002.95,0002.53,0002.37
2022-05-20 23:37:00,,0824.6,5.00,0.00,22.5,21.4,00.0,31.6,24.3,20.7,0000.0,0003.08,0002.59,0002.41
2022-05-20 23:38:00,,0824.6,5.00,0.00,22.5,21.4,00.0,31.6,24.3,20.7,0000.0,0003.07,0002.59,0002.41
2022-05-20 23:39:00,,0824.6,5.00,0.00,22.5,21.4,00.0,31.5,24.3,20.7,0000.0,0003.07,0002.58,0002.41
2022-05-20 23:40:00,,0824.6,5.00,0.00,22.5,21.4,00.0,31.5,24.3,20.8,0000.0,0003.14,0002.62,0002.42
2022-05-20 23:41:00,,0824.5,4.99,0.00,22.5,21.4,00.0,31.5,24.3,20.8,0000.0,0003.13,0002.60,0002.41
2022-05-20 23:42:00,,0824.4,5.00,0.00,22.4,21.4,00.0,31.5,24.3,20.8,0000.0,0003.17,0002.60,0002.40
2022-05-20 23:43:00,,0824.4,4.99,0.00,22.4,21.4,00.0,31.5,24.2,20.8,0000.0,0003.13,0002.58,0002.37
2022-05-20 23:44:00,,0824.5,5.00,0.00,22.4,21.3,00.0,31.5,24.2,20.8,0000.0,0003.06,0002.52,0002.33
2022-05-20 23:45:00,,0824.7,5.00,0.00,22.4,21.3,00.0,31.5,24.2,20.8,0000.0,0003.01,0002.48,0002.29
2022-05-20 23:46:00,,0824.7,5.02,0.00,22.4,21.3,00.0,31.5,24.2,20.8,0000.0,0002.90,0002.40,0002.24
2022-05-20 23:47:00,,0824.7,4.99,0.00,22.4,21.2,00.0,31.5,24.2,20.8,0000.0,0002.72,0002.30,0002.17
2022-05-20 23:48:00,,0824.6,5.00,0.00,22.4,21.2,00.0,31.4,24.1,20.9,0000.0,0002.53,0002.20,0002.11
2022-05-20 23:49:00,,0824.6,5.00,0.00,22.3,21.2,00.0,31.4,24.1,20.9,0000.0,0002.50,0002.15,0002.06
2022-05-20 23:50:00,,0824.5,5.01,0.00,22.3,21.2,00.0,31.4,24.1,20.9,0000.0,0002.51,0002.13,0002.02
2022-05-20 23:51:00,,0824.5,5.00,0.00,22.3,21.2,00.0,31.4,24.0,20.9,0000.0,0002.44,0002.07,0001.98
2022-05-20 23:52:00,,0824.6,5.00,0.00,22.3,21.1,00.0,31.4,24.0,21.0,0000.0,0002.35,0002.01,0001.93
2022-05-20 23:53:00,,0824.7,5.00,0.00,22.3,21.1,00.0,31.4,24.0,21.6,0000.0,0002.32,0001.98,0001.89
2022-05-20 23:54:00,,0824.7,5.00,0.00,22.3,21.1,00.0,31.4,24.0,23.3,0000.0,0002.26,0001.94,0001.86
2022-05-20 23:55:00,,0824.6,4.99,0.00,22.2,21.1,00.0,31.3,24.0,22.4,0000.0,0002.28,0001.93,0001.83
2022-05-20 23:56:00,,0824.6,5.00,0.00,22.2,21.1,00.0,31.3,24.0,21.6,0000.0,0002.30,0001.92,0001.82
2022-05-20 23:57:00,,0824.6,5.00,0.00,22.2,21.1,00.0,31.3,24.0,21.4,0000.0,0002.30,0001.92,0001.82
2022-05-20 23:58:00,,0824.7,5.00,0.00,22.2,21.1,00.0,31.3,24.0,21.3,0000.0,0002.32,0001.93,0001.83
2022-05-20 23:59:00,,0824.8,5.00,0.00,22.2,21.1,00.0,31.3,24.0,21.3,0000.0,0002.44,0001.98,0001.85
